Lid_Strength_Index
5 5 5 5 5 5 5 5 5 5 5 5 4 4 5 5 5 6 7 6 8 10 10 8 8 10 10 10 13 10 11 10 10 11 12 12 13 12 12 10 11 13 15 15 14 16 17 7 8 11 10 8 7 7
6 5 5 5 5 5 5 5 5 5 5 4 4 4 4 4 4 4 8 5 5 8 9 6 6 5 6 7 8 9 10 10 8 10 11 11 13 11 12 15 9 14 12 14 13 14 9 7 8 6 7 7 7 7
6 6 6 6 5 5 5 5 5 5 5 4 4 4 3 3 3 3 5 4 5 7 8 7 7 4 2 3 3 9 7 6 7 5 8 10 13 11 14 13 12 10 8 12 11 9 8 7 6 5 5 6 6 6
6 7 6 6 5 5 5 5 4 5 4 4 4 3 2 2 1 2 4 2 3 5 9 8 3 5 2 2 1 2 3 3 5 5 8 9 12 8 11 10 11 10 9 10 11 9 7 6 6 6 6 6 6 6
7 6 6 6 5 5 4 4 4 4 4 3 2 1 1 1 1 1 1 1 0 4 8 7 4 3 2 2 2 2 3 5 6 8 9 10 8 9 9 9 11 8 10 11 12 8 8 7 6 5 5 5 6 6
6 6 5 5 4 4 3 3 3 3 2 1 1 1 1 0 -0 1 4 1 0 0 5 9 4 4 2 2 3 4 4 5 5 7 8 7 6 8 12 13 8 7 6 6 8 5 6 5 5 4 5 5 5 5
5 5 4 4 3 3 2 2 2 1 1 1 1 0 -1 -1 -1 3 4 1 -1 0 5 8 8 4 3 3 4 4 4 5 5 7 8 8 8 7 10 12 8 6 6 5 4 5 6 5 6 5 4 3 3 3
5 4 3 3 3 2 1 1 1 1 0 -0 -1 -2 -2 -2 -1 2 -0 -2 -1 2 4 9 8 7 3 6 7 4 6 6 6 7 7 8 7 8 12 8 6 5 5 5 5 4 5 5 5 4 3 4 4 4
3 3 3 2 2 1 1 0 0 -0 -2 -2 -2 -2 -0 1 3 2 -0 -0 -0 3 8 8 10 11 4 6 5 6 6 10 6 9 8 8 10 12 8 8 7 6 6 6 5 4 4 5 5 5 4 4 5 5
3 3 2 2 1 1 1 0 -1 -2 -2 -2 -1 2 5 2 -1 0 2 4 4 4 4 8 5 9 6 7 8 8 7 10 12 9 7 10 11 6 6 6 5 5 5 5 6 6 5 5 5 4 4 4 4 4
2 2 2 2 1 1 0 -1 -2 -2 -1 1 3 4 1 -2 2 4 7 7 7 9 6 6 6 8 5 9 9 7 10 9 13 11 10 12 12 8 5 6 4 4 4 4 4 4 4 4 4 5 4 4 3 4
2 2 1 1 1 0 -1 -1 -2 -0 0 1 2 1 2 3 5 8 9 8 9 10 7 8 7 6 6 5 8 8 10 9 13 8 11 14 10 6 5 5 4 4 4 4 3 4 3 3 3 4 4 4 4 4
2 2 1 1 1 -1 -1 -1 -2 -1 -1 0 2 4 5 6 10 11 12 10 10 7 6 7 8 6 6 5 8 9 12 12 7 12 13 11 7 6 5 4 4 3 3 3 3 3 3 3 3 3 4 3 3 3
1 1 1 -0 -0 -1 -1 -1 -1 -0 1 4 6 10 9 10 9 9 9 9 6 6 6 6 7 8 6 8 8 11 9 9 13 14 14 9 7 6 4 4 4 4 4 4 4 3 3 3 3 3 3 3 3 3
1 1 0 -0 -1 -1 -1 -2 -1 -1 2 6 6 10 9 7 6 6 5 6 5 5 6 7 7 7 8 9 9 10 12 14 13 13 10 7 5 5 5 4 4 4 4 4 3 3 3 3 3 3 3 3 3 3
1 0 0 -1 -1 -1 -1 -1 -1 -0 2 4 5 8 6 7 7 6 6 6 4 5 5 6 8 10 10 10 11 12 13 14 12 9 7 5 5 5 5 4 4 3 3 3 3 3 3 3 3 3 3 2 3 3
1 1 0 -1 -1 -1 -1 -0 1 3 4 5 6 4 5 5 6 6 5 5 3 5 8 8 11 12 8 11 12 10 12 9 7 6 5 5 5 5 4 3 3 3 3 3 3 3 3 2 2 3 4 3 2 2
2 0 -1 -1 -1 -1 -0 1 2 4 6 5 6 5 4 4 5 5 4 4 5 6 6 8 7 10 12 13 12 10 7 6 5 5 5 4 4 4 3 4 3 3 3 3 3 3 3 3 4 4 3 3 3 3
2 1 -0 -1 -1 1 3 2 2 6 5 4 4 4 4 4 3 3 3 3 3 4 5 7 9 11 11 10 8 7 6 6 6 5 4 4 3 3 3 3 3 3 3 3 3 3 3 3 3 3 3 3 4 4
1 0 -0 -1 -1 2 4 3 1 4 6 4 4 4 4 4 4 4 4 4 5 6 9 10 10 9 8 6 5 5 5 4 5 6 5 4 3 3 3 3 3 3 3 3 3 4 3 3 3 2 2 3 4 5
1 0 0 -1 0 1 3 4 4 4 4 5 4 4 5 4 5 5 5 5 7 8 9 7 6 5 3 3 3 3 4 4 4 4 5 5 3 3 3 3 3 3 3 3 3 3 4 3 2 3 3 3 3 4
0 0 1 -0 2 2 3 2 4 3 4 5 5 4 6 7 6 5 4 6 7 6 6 5 4 4 4 4 3 3 3 2 3 4 4 3 4 4 4 3 3 4 3 3 3 3 3 3 2 2 3 3 4 4
0 1 2 2 5 6 6 2 5 4 7 6 5 6 6 6 5 3 7 6 5 4 4 4 3 3 3 2 2 2 2 3 3 3 3 3 3 3 3 3 3 3 3 3 2 2 3 5 3 2 2 3 3 4
1 3 4 5 5 7 4 6 4 5 5 6 7 8 7 7 5 6 8 7 5 4 5 4 3 4 3 3 3 3 2 2 2 2 2 3 4 3 2 2 2 2 2 2 2 2 2 2 3 2 2 2 3 4
6 7 6 8 4 6 7 7 7 7 8 7 8 8 7 6 8 8 8 7 5 5 4 3 3 3 4 4 3 3 2 2 3 3 2 2 2 2 3 2 2 2 1 2 2 2 2 2 2 2 2 2 3 4
10 5 7 6 6 7 7 8 8 8 8 8 7 6 6 8 9 10 7 6 5 5 4 4 4 4 4 3 4 3 3 1 2 3 2 2 2 3 3 3 3 3 1 1 2 2 2 2 2 2 2 3 7 4
9 8 5 3 4 5 6 6 5 7 8 8 7 7 8 10 10 7 4 4 4 3 2 2 2 3 3 3 2 1 1 1 1 2 1 1 1 1 1 3 3 3 0 1 1 1 2 2 2 2 2 2 2 3
6 5 7 5 6 4 7 7 7 8 7 5 6 8 9 10 9 5 3 2 2 1 2 1 1 1 2 2 1 1 1 1 1 1 1 1 1 1 1 1 1 7 2 2 1 1 1 2 2 2 2 3 3 3
6 4 4 6 6 6 6 7 7 5 4 5 7 8 8 4 3 3 3 2 2 2 2 2 2 1 1 1 1 1 1 1 3 4 4 4 4 4 3 3 3 3 2 2 6 6 2 3 3 1 2 3 4 4
7 4 6 6 7 8 6 4 5 3 3 3 3 4 4 3 2 1 2 3 3 3 2 2 2 2 2 2 2 2 1 1 2 3 5 5 5 4 4 5 5 4 4 4 4 3 7 4 4 2 3 3 3 4
5 5 6 6 7 5 4 3 2 2 3 3 3 4 5 3 2 1 2 2 3 3 3 3 3 2 3 3 2 3 3 2 2 4 4 5 5 6 6 5 5 5 5 5 5 4 3 3 2 2 3 4 4 5
6 7 6 8 6 4 3 4 4 4 4 4 4 4 4 4 6 3 1 1 3 3 5 4 3 4 2 2 1 2 7 3 4 5 5 6 6 6 6 5 5 5 5 5 4 4 4 3 4 4 4 5 5 5
6 6 6 6 6 6 4 5 6 6 5 5 5 5 5 5 8 3 0 -0 1 2 2 2 2 1 1 1 2 3 5 4 7 10 10 10 11 10 7 6 6 6 6 5 6 5 5 5 4 4 4 4 5 6